Bonaire, Netherlands

2:25 AM AST on September 25, 2017 (GMT -0400)
Flamingo

Weather History for TNCB - January, 2014

Change the Weather History Date:

Monday, January 13, 2014

  Actual Average Record
Temperature  
Mean Temperature 80 °F -  
Max Temperature 82 °F 84 °F 87 °F (1998)
Min Temperature 77 °F 77 °F 75 °F (2000)
Cooling Degree Days 14    
Growing Degree Days 30 (Base 50)    
Moisture  
Dew Point 73 °F    
Average Humidity 80    
Maximum Humidity 89    
Minimum Humidity 70    
Precipitation  
Precipitation 0.00 in - - ()
Sea Level Pressure  
Sea Level Pressure 29.97 in    
Wind  
Wind Speed 13 mph ()    
Max Wind Speed 23 mph    
Max Gust Speed -    
Visibility 6.2 miles    
Events      
Averages and records for this station are not official NWS values.
T = Trace of Precipitation, MM = Missing Value Source: Averaged Metar Reports

Daily Weather History Graph

Daily Weather History Graph

Search for Another Location

Airport or City:

Trip Planner

Search our weather history database for the weather conditions in past years. The results will help you decide how hot, cold, wet, or windy it might be!

Date:

Astronomy

Jan. 13, 2014 Rise Set
Actual Time 6:57 AM AST 6:26 PM AST
Civil Twilight 6:34 AM AST 6:48 PM AST
Nautical Twilight 6:08 AM AST 7:15 PM AST
Astronomical Twilight 5:42 AM AST 7:41 PM AST
Moon 4:35 PM AST (1/13) 4:46 AM AST (1/13)
Length of Visible Light 12h 14m
Length of Day
11h 28m
Waxing Gibbous, 94% of the Moon is Illuminated
Jan 13
Waxing Gibbous
Jan 16
Full
Jan 24
Last Quarter
Jan 30
New
Feb 6
First Quarter

Hourly Weather History & Observations

Time (AST) Temp. Heat Index Dew Point Humidity Pressure Visibility Wind Dir Wind Speed Gust Speed Precip Events Conditions
12:00 AM 78.8 °F - 73.4 °F 83% 30.01 in - ENE 13.8 mph - N/A   Unknown
1:00 AM 78.8 °F - 73.4 °F 83% 29.98 in - ENE 16.1 mph - N/A   Unknown
2:00 AM 78.8 °F - 71.6 °F 78% 29.98 in - ENE 15.0 mph - N/A   Unknown
3:00 AM 78.8 °F - 71.6 °F 78% 29.95 in - ENE 13.8 mph - N/A   Unknown
4:00 AM 77.0 °F - 73.4 °F 89% 29.95 in - ENE 11.5 mph - N/A   Unknown
5:00 AM 77.0 °F - 71.6 °F 83% 29.95 in - ENE 12.7 mph - N/A   Unknown
6:00 AM 77.0 °F - 71.6 °F 83% 29.95 in - East 11.5 mph - N/A   Unknown
7:00 AM 77.0 °F - 71.6 °F 83% 29.95 in - East 10.4 mph - N/A   Unknown
8:00 AM 78.8 °F - 71.6 °F 78% 29.98 in - East 12.7 mph - N/A   Unknown
9:00 AM 80.6 °F 84.6 °F 71.6 °F 74% 30.01 in 6.2 mi ENE 16.1 mph - N/A   Scattered Clouds
10:00 AM 82.4 °F 88.2 °F 73.4 °F 74% 30.01 in - ENE 17.3 mph - N/A   Unknown
11:00 AM 80.6 °F 86.2 °F 75.2 °F 84% 30.01 in 6.2 mi East 17.3 mph - N/A   Mostly Cloudy
12:00 PM 80.6 °F 85.4 °F 73.4 °F 79% 30.01 in 6.2 mi East 11.5 mph - N/A   Mostly Cloudy
12:55 PM 82.4 °F 88.2 °F 73.4 °F 74% 29.98 in 6.2 mi East 16.1 mph - N/A   Mostly Cloudy
2:55 PM 82.4 °F 88.2 °F 73.4 °F 74% 29.92 in 6.2 mi East 16.1 mph - N/A   Partly Cloudy
3:55 PM 82.4 °F 87.2 °F 71.6 °F 70% 29.92 in 6.2 mi East 18.4 mph - N/A   Partly Cloudy
4:55 PM 82.4 °F 88.2 °F 73.4 °F 74% 29.92 in 6.2 mi ENE 20.7 mph - N/A   Scattered Clouds
5:55 PM 78.8 °F - 73.4 °F 83% 29.92 in 6.2 mi ENE 23.0 mph - N/A   Scattered Clouds
6:55 PM 78.8 °F - 73.4 °F 83% 29.95 in 6.2 mi ENE 17.3 mph - N/A   Scattered Clouds
7:55 PM 78.8 °F - 73.4 °F 83% 29.95 in 6.2 mi ENE 17.3 mph - N/A   Scattered Clouds
8:55 PM 78.8 °F - 73.4 °F 83% 29.98 in - ENE 13.8 mph - N/A   Unknown